Orbital Elements at Epoch 2452926.5 (2003-Oct-14.0) TDB
Reference: JPL 29 (heliocentric ecliptic J2000)
Element | Value | Uncertainty (1-sigma) | Units |
e | .6460250873419684 | 2.2476e-07 | |
a | 4.252984092256914 | 2.2494e-07 | au |
q | 1.505449672592639 | 9.3841e-07 | au |
i | 14.69119860325759 | 1.5374e-05 | deg |
node | 344.7112831800904 | 5.5516e-05 | deg |
peri | 32.72047022939254 | 0.00011727 | deg |
M | 4.291673197608478 | 1.7451e-05 | deg |
tp | 2452888.308808534912 (2003-Sep-05.80880853) | 0.00015601 | TDB |
period | 3203.605748707327 8.77 | 0.00025416 6.959e-07 | d yr |
n | .1123733780741472 | 8.9151e-09 | deg/d |
Q | 7.000518511921189 | 3.7026e-07 | au |
|
| | Orbit Determination Parameters
Additional Information
|